UAL258 KEWR-KBOS

Flight info

Callsign UAL258
Flight time 0h 45m
Altitude 21000
Route MERIT ROBUC3
Aircraft B739/M-SDE2E3FGHIRWXY/LB1

Departure

Time 2026-05-06 14:50
Airport Newark Liberty International Airport (KEWR)

Arrival

Time 2026-05-06 15:35
Airport Boston Logan International Airport (KBOS)
Time Latitude Longitude Altitude Speed Heading
2026-05-06 14:23 40.69645 -74.17270 21 ft 0 kts 194°
2026-05-06 14:41 40.69656 -74.17266 23 ft 3 kts 194°
2026-05-06 14:41 40.69673 -74.17257 22 ft 3 kts 242°
2026-05-06 14:41 40.69677 -74.17244 23 ft 0 kts 278°
2026-05-06 14:43 40.69683 -74.17247 25 ft 2 kts 344°
2026-05-06 14:43 40.69736 -74.17222 21 ft 15 kts 36°
2026-05-06 14:44 40.69812 -74.17104 21 ft 16 kts 79°
2026-05-06 14:44 40.69734 -74.17021 23 ft 15 kts 155°
2026-05-06 14:44 40.69639 -74.16969 21 ft 15 kts 161°
2026-05-06 14:45 40.69619 -74.16909 21 ft 2 kts 40°
2026-05-06 14:45 40.69631 -74.16896 21 ft 2 kts 39°
2026-05-06 14:45 40.69642 -74.16880 21 ft 3 kts 50°
2026-05-06 14:45 40.69670 -74.16816 21 ft 13 kts 63°
2026-05-06 14:46 40.69748 -74.16701 20 ft 21 kts 25°
2026-05-06 14:46 40.69840 -74.16645 20 ft 7 kts 24°
2026-05-06 14:46 40.69854 -74.16637 22 ft 0 kts 24°
2026-05-06 14:47 40.69871 -74.16625 20 ft 7 kts 32°
2026-05-06 14:48 40.69899 -74.16558 20 ft 10 kts 86°
2026-05-06 14:48 40.69884 -74.16477 21 ft 10 kts 146°
2026-05-06 14:48 40.69845 -74.16476 19 ft 0 kts 199°
2026-05-06 14:49 40.69823 -74.16488 19 ft 23 kts 203°
2026-05-06 14:49 40.69414 -74.16747 23 ft 104 kts 206°
2026-05-06 14:49 40.68554 -74.17296 55 ft 165 kts 206°
2026-05-06 14:49 40.67412 -74.18039 505 ft 194 kts 206°
2026-05-06 14:50 40.66162 -74.18839 1339 ft 204 kts 205°
2026-05-06 14:50 40.64812 -74.19585 2208 ft 210 kts 198°
2026-05-06 14:50 40.63377 -74.19464 3213 ft 236 kts 162°
2026-05-06 14:50 40.62076 -74.17930 4217 ft 268 kts 132°
2026-05-06 14:51 40.61734 -74.15461 5224 ft 307 kts 81°
2026-05-06 14:51 40.62702 -74.12912 6207 ft 320 kts 49°
2026-05-06 14:51 40.64458 -74.11104 7189 ft 320 kts 29°
2026-05-06 14:51 40.66443 -74.09808 8149 ft 320 kts 19°
2026-05-06 14:52 40.67834 -74.09118 8633 ft 325 kts 18°
2026-05-06 14:52 40.69978 -74.08037 9244 ft 334 kts 19°
2026-05-06 14:52 40.72128 -74.06836 9986 ft 338 kts 24°
2026-05-06 14:52 40.74241 -74.05346 10420 ft 355 kts 30°
2026-05-06 14:53 40.76348 -74.03459 10590 ft 378 kts 37°
2026-05-06 14:53 40.79123 -74.00385 10817 ft 404 kts 43°
2026-05-06 14:53 40.80501 -73.98653 11217 ft 407 kts 45°
2026-05-06 14:53 40.82501 -73.95964 11887 ft 411 kts 47°
2026-05-06 14:54 40.84445 -73.93218 12506 ft 416 kts 47°
2026-05-06 14:54 40.86407 -73.90374 13121 ft 422 kts 48°
2026-05-06 14:54 40.88368 -73.87500 13654 ft 429 kts 48°
2026-05-06 14:54 40.90371 -73.84554 14231 ft 432 kts 48°
2026-05-06 14:55 40.92384 -73.81591 14881 ft 434 kts 48°
2026-05-06 14:55 40.94411 -73.78611 15503 ft 436 kts 47°
2026-05-06 14:55 40.96448 -73.75617 16076 ft 440 kts 47°
2026-05-06 14:55 40.98509 -73.72588 16646 ft 443 kts 47°
2026-05-06 14:56 41.00580 -73.69545 17219 ft 446 kts 47°
2026-05-06 14:56 41.02667 -73.66474 17797 ft 449 kts 47°
2026-05-06 14:56 41.04765 -73.63386 18295 ft 452 kts 47°
2026-05-06 14:56 41.06843 -73.60321 18827 ft 454 kts 47°
2026-05-06 14:57 41.08958 -73.57200 19364 ft 456 kts 47°
2026-05-06 14:57 41.11083 -73.54060 19866 ft 459 kts 47°
2026-05-06 14:57 41.13221 -73.50898 20366 ft 461 kts 46°
2026-05-06 14:57 41.15369 -73.47719 20857 ft 463 kts 46°
2026-05-06 14:58 41.17520 -73.44532 21320 ft 466 kts 46°
2026-05-06 14:58 41.19686 -73.41317 21810 ft 468 kts 46°
2026-05-06 14:58 41.21868 -73.38078 22184 ft 473 kts 45°
2026-05-06 14:58 41.24065 -73.34812 22561 ft 477 kts 45°
2026-05-06 14:59 41.26277 -73.31519 23066 ft 478 kts 45°
2026-05-06 14:59 41.28491 -73.28218 23518 ft 479 kts 45°
2026-05-06 14:59 41.30714 -73.24900 23924 ft 481 kts 45°
2026-05-06 14:59 41.32942 -73.21572 24254 ft 484 kts 45°
2026-05-06 15:00 41.35182 -73.18212 24569 ft 488 kts 46°
2026-05-06 15:00 41.37193 -73.14531 24885 ft 495 kts 56°
2026-05-06 15:00 41.38795 -73.10430 24907 ft 504 kts 66°
2026-05-06 15:00 41.39912 -73.05984 24930 ft 510 kts 75°
2026-05-06 15:01 41.40804 -73.01387 24920 ft 513 kts 76°
2026-05-06 15:01 41.41663 -72.96775 24911 ft 513 kts 76°
2026-05-06 15:01 41.42518 -72.92164 24888 ft 512 kts 76°
2026-05-06 15:01 41.43384 -72.87561 24905 ft 511 kts 75°
2026-05-06 15:02 41.44262 -72.82974 24901 ft 511 kts 75°
2026-05-06 15:02 41.45149 -72.78398 24911 ft 510 kts 75°
2026-05-06 15:02 41.46043 -72.73816 24930 ft 509 kts 75°
2026-05-06 15:02 41.46936 -72.69245 24930 ft 509 kts 75°
2026-05-06 15:03 41.47826 -72.64686 24941 ft 508 kts 75°
2026-05-06 15:03 41.48702 -72.60183 24883 ft 508 kts 75°
2026-05-06 15:03 41.49588 -72.55610 24892 ft 507 kts 75°
2026-05-06 15:03 41.50467 -72.51058 24909 ft 507 kts 75°
2026-05-06 15:04 41.51343 -72.46511 24902 ft 506 kts 75°
2026-05-06 15:04 41.52219 -72.41952 24905 ft 506 kts 75°
2026-05-06 15:04 41.53092 -72.37400 24912 ft 506 kts 75°
2026-05-06 15:04 41.53963 -72.32842 24917 ft 506 kts 75°
2026-05-06 15:05 41.54831 -72.28295 24919 ft 505 kts 75°
2026-05-06 15:05 41.55685 -72.23806 24895 ft 492 kts 76°
2026-05-06 15:05 41.56519 -72.19418 24527 ft 485 kts 76°
2026-05-06 15:05 41.57341 -72.15083 24033 ft 480 kts 76°
2026-05-06 15:06 41.58156 -72.10768 23507 ft 476 kts 76°
2026-05-06 15:06 41.58964 -72.06489 22863 ft 473 kts 76°
2026-05-06 15:06 41.59764 -72.02240 22301 ft 469 kts 77°
2026-05-06 15:06 41.60554 -71.98039 21729 ft 465 kts 77°
2026-05-06 15:07 41.61327 -71.93912 21185 ft 461 kts 77°
2026-05-06 15:07 41.62102 -71.89772 20637 ft 457 kts 78°
2026-05-06 15:07 41.62870 -71.85655 20106 ft 453 kts 78°
2026-05-06 15:07 41.63626 -71.81596 19590 ft 449 kts 78°
2026-05-06 15:08 41.64376 -71.77560 19072 ft 446 kts 78°
2026-05-06 15:08 41.65119 -71.73552 18529 ft 443 kts 78°
2026-05-06 15:08 41.65857 -71.69563 18105 ft 437 kts 79°
2026-05-06 15:08 41.66577 -71.65674 17909 ft 425 kts 79°
2026-05-06 15:09 41.67274 -71.61896 17701 ft 413 kts 79°
2026-05-06 15:09 41.67962 -71.58206 17490 ft 404 kts 77°
2026-05-06 15:09 41.68868 -71.54661 17041 ft 403 kts 70°
2026-05-06 15:09 41.69945 -71.51222 16659 ft 399 kts 69°
2026-05-06 15:10 41.71005 -71.47807 16248 ft 396 kts 70°
2026-05-06 15:10 41.72026 -71.44394 15842 ft 393 kts 71°
2026-05-06 15:10 41.73148 -71.41056 15406 ft 394 kts 64°
2026-05-06 15:10 41.74517 -71.37880 14993 ft 393 kts 60°
2026-05-06 15:11 41.75932 -71.34753 14564 ft 392 kts 61°
2026-05-06 15:11 41.77313 -71.31621 14135 ft 391 kts 62°
2026-05-06 15:11 41.78670 -71.28470 13708 ft 390 kts 63°
2026-05-06 15:11 41.79997 -71.25354 13261 ft 389 kts 63°
2026-05-06 15:12 41.81331 -71.22215 12851 ft 386 kts 63°
2026-05-06 15:12 41.82654 -71.19100 12463 ft 383 kts 63°
2026-05-06 15:12 41.83971 -71.16000 12099 ft 380 kts 63°
2026-05-06 15:12 41.85261 -71.12966 11958 ft 370 kts 64°
2026-05-06 15:13 41.86529 -71.10001 11805 ft 362 kts 63°
2026-05-06 15:13 41.87778 -71.07115 11629 ft 354 kts 63°
2026-05-06 15:13 41.89009 -71.04274 11483 ft 350 kts 63°
2026-05-06 15:13 41.90226 -71.01460 11334 ft 348 kts 63°
2026-05-06 15:14 41.91441 -70.98646 11185 ft 348 kts 64°
2026-05-06 15:14 41.92654 -70.95831 11036 ft 348 kts 64°
2026-05-06 15:14 41.93868 -70.93008 10869 ft 348 kts 64°
2026-05-06 15:14 41.95079 -70.90191 10722 ft 348 kts 64°
2026-05-06 15:15 41.96289 -70.87375 10550 ft 348 kts 64°
2026-05-06 15:15 41.97499 -70.84557 10398 ft 348 kts 64°
2026-05-06 15:15 41.98692 -70.81773 10247 ft 347 kts 64°
2026-05-06 15:15 41.99895 -70.78966 10119 ft 346 kts 64°
2026-05-06 15:16 42.01104 -70.76191 9925 ft 342 kts 60°
2026-05-06 15:16 42.02586 -70.73668 9556 ft 344 kts 50°
2026-05-06 15:16 42.04218 -70.71348 9231 ft 343 kts 48°
2026-05-06 15:16 42.05853 -70.69032 8909 ft 341 kts 49°
2026-05-06 15:17 42.07458 -70.66685 8578 ft 339 kts 50°
2026-05-06 15:17 42.09039 -70.64330 8264 ft 338 kts 50°
2026-05-06 15:17 42.10728 -70.62148 7914 ft 338 kts 31°
2026-05-06 15:17 42.12863 -70.60945 7628 ft 329 kts
2026-05-06 15:18 42.15084 -70.60295 7335 ft 326 kts
2026-05-06 15:18 42.17310 -70.59720 7041 ft 324 kts
2026-05-06 15:18 42.19522 -70.59150 6732 ft 323 kts
2026-05-06 15:18 42.21695 -70.58573 6431 ft 322 kts
2026-05-06 15:19 42.23894 -70.57973 6084 ft 321 kts
2026-05-06 15:19 42.26077 -70.57367 5779 ft 320 kts
2026-05-06 15:19 42.28257 -70.56758 5470 ft 318 kts
2026-05-06 15:19 42.30421 -70.56188 5166 ft 314 kts
2026-05-06 15:20 42.32512 -70.56477 4931 ft 291 kts 331°
2026-05-06 15:20 42.34224 -70.57710 4913 ft 272 kts 312°
2026-05-06 15:20 42.35607 -70.59386 4916 ft 265 kts 306°
2026-05-06 15:20 42.36909 -70.61109 4918 ft 265 kts 305°
2026-05-06 15:21 42.38222 -70.62865 4910 ft 266 kts 305°
2026-05-06 15:21 42.39524 -70.64602 4893 ft 266 kts 305°
2026-05-06 15:21 42.40844 -70.66356 4892 ft 265 kts 305°
2026-05-06 15:21 42.42163 -70.68102 4890 ft 265 kts 305°
2026-05-06 15:22 42.43485 -70.69849 4879 ft 265 kts 305°
2026-05-06 15:22 42.44802 -70.71589 4886 ft 264 kts 305°
2026-05-06 15:22 42.46117 -70.73324 4891 ft 264 kts 305°
2026-05-06 15:22 42.47429 -70.75056 4891 ft 263 kts 305°
2026-05-06 15:23 42.48742 -70.76790 4887 ft 263 kts 305°
2026-05-06 15:23 42.50054 -70.78523 4895 ft 263 kts 305°
2026-05-06 15:23 42.51364 -70.80224 4878 ft 260 kts 309°
2026-05-06 15:23 42.53005 -70.81312 4872 ft 271 kts 344°
2026-05-06 15:24 42.54888 -70.81079 4890 ft 277 kts 15°
2026-05-06 15:24 42.56704 -70.80177 4918 ft 282 kts 17°
2026-05-06 15:24 42.58567 -70.79228 4907 ft 288 kts 17°
2026-05-06 15:24 42.60427 -70.78298 4879 ft 287 kts 16°
2026-05-06 15:25 42.62291 -70.77366 4875 ft 282 kts 16°
2026-05-06 15:25 42.64130 -70.76733 4779 ft 269 kts 350°
2026-05-06 15:25 42.65808 -70.77355 4747 ft 240 kts 316°
2026-05-06 15:25 42.67023 -70.78778 4623 ft 225 kts 295°
2026-05-06 15:26 42.67755 -70.80566 4515 ft 210 kts 276°
2026-05-06 15:26 42.67973 -70.82476 4390 ft 195 kts 258°
2026-05-06 15:26 42.67731 -70.84204 4288 ft 185 kts 242°
2026-05-06 15:26 42.67119 -70.85699 4178 ft 179 kts 229°
2026-05-06 15:27 42.66108 -70.86599 4057 ft 181 kts 194°
2026-05-06 15:27 42.64856 -70.86800 3975 ft 179 kts 202°
2026-05-06 15:27 42.63698 -70.87397 3890 ft 180 kts 204°
2026-05-06 15:27 42.62501 -70.87943 3789 ft 181 kts 203°
2026-05-06 15:28 42.61308 -70.88490 3691 ft 181 kts 204°
2026-05-06 15:28 42.60114 -70.89054 3587 ft 182 kts 204°
2026-05-06 15:28 42.58934 -70.89620 3486 ft 177 kts 204°
2026-05-06 15:28 42.57813 -70.90158 3387 ft 164 kts 205°
2026-05-06 15:29 42.56754 -70.90673 3292 ft 160 kts 205°
2026-05-06 15:29 42.55708 -70.91181 3228 ft 159 kts 205°
2026-05-06 15:29 42.54673 -70.91683 3144 ft 158 kts 205°
2026-05-06 15:29 42.53644 -70.92184 3040 ft 155 kts 205°
2026-05-06 15:30 42.52643 -70.92671 2881 ft 148 kts 204°
2026-05-06 15:30 42.51692 -70.93130 2768 ft 142 kts 204°
2026-05-06 15:30 42.50771 -70.93576 2586 ft 140 kts 204°
2026-05-06 15:30 42.49863 -70.94019 2494 ft 139 kts 203°
2026-05-06 15:31 42.48973 -70.94449 2421 ft 134 kts 202°
2026-05-06 15:31 42.48119 -70.94862 2235 ft 127 kts 202°
2026-05-06 15:31 42.47284 -70.95272 2091 ft 134 kts 202°
2026-05-06 15:32 42.45592 -70.96092 1754 ft 124 kts 200°
2026-05-06 15:32 42.44759 -70.96497 1593 ft 130 kts 200°
2026-05-06 15:32 42.43916 -70.96906 1424 ft 126 kts 200°
2026-05-06 15:32 42.43096 -70.97305 1240 ft 126 kts 201°
2026-05-06 15:33 42.42285 -70.97698 1064 ft 122 kts 200°
2026-05-06 15:33 42.41459 -70.98098 921 ft 138 kts 200°
2026-05-06 15:33 42.40498 -70.98565 715 ft 149 kts 200°
2026-05-06 15:33 42.39539 -70.99040 500 ft 142 kts 200°
2026-05-06 15:34 42.38659 -70.99513 327 ft 135 kts 201°
2026-05-06 15:34 42.37759 -70.99929 142 ft 137 kts 197°
2026-05-06 15:34 42.36892 -71.00314 24 ft 121 kts 200°
2026-05-06 15:34 42.36247 -71.00620 30 ft 77 kts 199°
2026-05-06 15:35 42.35881 -71.00796 20 ft 34 kts 200°
2026-05-06 15:35 42.35812 -71.00989 22 ft 22 kts 277°
2026-05-06 15:35 42.35833 -71.01195 26 ft 22 kts 277°
2026-05-06 15:35 42.35856 -71.01394 27 ft 21 kts 286°
2026-05-06 15:36 42.35892 -71.01580 29 ft 20 kts 290°
2026-05-06 15:36 42.36013 -71.01608 28 ft 16 kts 341°
2026-05-06 15:36 42.36035 -71.01662 27 ft 1 kts 287°
2026-05-06 15:36 42.36039 -71.01675 26 ft 2 kts 292°
2026-05-06 15:37 42.36045 -71.01695 30 ft 3 kts 288°
2026-05-06 15:37 42.36048 -71.01709 29 ft 0 kts 288°